Frederick, MD

10:55 PM EDT on September 25, 2016 (GMT -0400)
Frederick Municipal

Weather History for KFDK - March, 2013

Change the Weather History Date:

Friday, March 1, 2013

  Actual Average (KHGR) Record (KHGR)
Temperature  
Mean Temperature 37 °F 36 °F  
Max Temperature 42 °F 45 °F 64 °F (2016)
Min Temperature 32 °F 28 °F 13 °F (2014)
Degree Days  
Heating Degree Days 28 28  
Month to date heating degree days 28  
Since 1 July heating degree days 3931  
Cooling Degree Days 0 0  
Month to date cooling degree days 0  
Year to date cooling degree days 0  
Moisture  
Dew Point 29 °F    
Average Humidity 74    
Maximum Humidity 81    
Minimum Humidity 57    
Precipitation  
Precipitation 0.00 in 0.08 in 0.25 in (2015)
Month to date precipitation 0.08  
Year to date precipitation 5.31  
Sea Level Pressure  
Sea Level Pressure 29.83 in    
Wind  
Wind Speed 10 mph (WNW)    
Max Wind Speed 18 mph    
Max Gust Speed 25 mph    
Visibility 10 miles    
Events      
T = Trace of Precipitation, MM = Missing Value Source: NWS Daily Summary

Daily Weather History Graph

Daily Weather History Graph

Search for Another Location

Airport or City:

Trip Planner

Search our weather history database for the weather conditions in past years. The results will help you decide how hot, cold, wet, or windy it might be!

Date:

Astronomy

Mar. 01, 2013 Rise Set
Actual Time 6:42 AM EST 6:02 PM EST
Civil Twilight 6:15 AM EST 6:29 PM EST
Nautical Twilight 5:44 AM EST 7:00 PM EST
Astronomical Twilight 5:12 AM EST 7:31 PM EST
Moon 10:31 PM EST (3/1) 8:28 AM EST (3/1)
Length of Visible Light 12h 13m
Length of Day
11h 20m
Waning Gibbous, 83% of the Moon is Illuminated
Mar 1
Waning Gibbous
Mar 4
Last Quarter
Mar 11
New
Mar 19
First Quarter
Mar 27
Full

Hourly Weather History & Observations

Time (EST) Temp. Windchill Dew Point Humidity Pressure Visibility Wind Dir Wind Speed Gust Speed Precip Events Conditions
12:05 AM 37.4 °F 31.4 °F 32.0 °F 81% 29.74 in 10.0 mi West 8.1 mph - N/A   Overcast
12:25 AM 37.4 °F 30.8 °F 32.0 °F 81% 29.75 in 10.0 mi West 9.2 mph - N/A   Overcast
12:45 AM 37.4 °F 29.3 °F 32.0 °F 81% 29.75 in 10.0 mi West 12.7 mph - N/A   Overcast
1:05 AM 37.4 °F 30.8 °F 32.0 °F 81% 29.76 in 10.0 mi WNW 9.2 mph - N/A   Overcast
1:25 AM 37.4 °F 30.3 °F 32.0 °F 81% 29.76 in 10.0 mi WNW 10.4 mph - N/A   Overcast
1:45 AM 37.4 °F 30.3 °F 32.0 °F 81% 29.77 in 10.0 mi WNW 10.4 mph - N/A   Overcast
2:10 AM 37.4 °F 30.3 °F 32.0 °F 81% 29.78 in 10.0 mi West 10.4 mph - N/A   Overcast
2:30 AM 37.4 °F 31.4 °F 32.0 °F 81% 29.77 in 10.0 mi West 8.1 mph - N/A   Overcast
2:50 AM 37.4 °F 29.8 °F 32.0 °F 81% 29.77 in 10.0 mi WNW 11.5 mph - N/A   Overcast
3:10 AM 37.4 °F 30.3 °F 32.0 °F 81% 29.77 in 10.0 mi WNW 10.4 mph - N/A   Overcast
3:30 AM 37.4 °F 33.8 °F 32.0 °F 81% 29.78 in 10.0 mi WNW 4.6 mph - N/A   Overcast
3:50 AM 37.4 °F 33.8 °F 32.0 °F 81% 29.78 in 10.0 mi WNW 4.6 mph - N/A   Overcast
4:10 AM 37.4 °F 32.8 °F 32.0 °F 81% 29.78 in 10.0 mi WNW 5.8 mph - N/A   Overcast
4:50 AM 37.4 °F 31.4 °F 32.0 °F 81% 29.77 in 10.0 mi WNW 8.1 mph - N/A   Overcast
5:10 AM 37.4 °F 31.4 °F 32.0 °F 81% 29.78 in 10.0 mi WNW 8.1 mph - N/A   Overcast
5:30 AM 37.4 °F 30.8 °F 32.0 °F 81% 29.78 in 10.0 mi WNW 9.2 mph - N/A   Overcast
6:52 AM 37.4 °F 28.9 °F 30.2 °F 75% 29.79 in 10.0 mi WNW 13.8 mph - N/A   Mostly Cloudy
7:55 AM 39.2 °F 31.2 °F 30.2 °F 70% 29.82 in 10.0 mi WNW 13.8 mph 17.3 mph N/A   Mostly Cloudy
8:48 AM 39.2 °F 29.8 °F 30.2 °F 70% 29.83 in 10.0 mi WNW 18.4 mph 25.3 mph N/A   Mostly Cloudy
9:47 AM 41.0 °F 32.2 °F 30.2 °F 65% 29.83 in 10.0 mi WNW 18.4 mph 25.3 mph N/A   Mostly Cloudy
11:50 AM 42.8 °F 35.1 °F 30.2 °F 61% 29.84 in 10.0 mi NW 16.1 mph - N/A   Overcast
12:46 PM 42.8 °F 35.1 °F 28.4 °F 57% 29.84 in 10.0 mi WNW 16.1 mph 23.0 mph N/A   Overcast
1:48 PM 42.8 °F 35.8 °F 28.4 °F 57% 29.82 in 10.0 mi WNW 13.8 mph - N/A   Overcast
2:45 PM 41.0 °F 34.3 °F 28.4 °F 61% 29.82 in 10.0 mi West 11.5 mph 19.6 mph N/A   Overcast
3:45 PM 41.0 °F 33.5 °F 26.6 °F 57% 29.83 in 10.0 mi WNW 13.8 mph 18.4 mph N/A   Overcast
4:45 PM 39.2 °F 32.5 °F 26.6 °F 61% 29.84 in 10.0 mi NW 10.4 mph - N/A   Overcast
5:45 PM 39.2 °F 33.6 °F 28.4 °F 65% 29.86 in 10.0 mi NW 8.1 mph - N/A   Overcast
6:45 PM 37.4 °F 31.4 °F 28.4 °F 70% 29.87 in 10.0 mi NNW 8.1 mph - N/A   Overcast
7:45 PM 37.4 °F 30.3 °F 28.4 °F 70% 29.88 in 10.0 mi NW 10.4 mph - N/A   Overcast
7:50 PM 35.6 °F 28.6 °F 28.4 °F 75% 29.89 in 10.0 mi NW 9.2 mph - N/A   Overcast
8:10 PM 35.6 °F 28.6 °F 28.4 °F 75% 29.90 in 10.0 mi NW 9.2 mph - N/A   Overcast
8:30 PM 35.6 °F 28.0 °F 28.4 °F 75% 29.91 in 10.0 mi NW 10.4 mph - N/A   Overcast
8:50 PM 35.6 °F 29.9 °F 28.4 °F 75% 29.92 in 10.0 mi NW 6.9 mph - N/A   Overcast
9:10 PM 35.6 °F 28.6 °F 28.4 °F 75% 29.91 in 10.0 mi WNW 9.2 mph - N/A   Overcast
9:30 PM 33.8 °F 27.0 °F 28.4 °F 81% 29.92 in 10.0 mi WNW 8.1 mph - N/A   Overcast
9:50 PM 33.8 °F 27.0 °F 26.6 °F 75% 29.92 in 10.0 mi WNW 8.1 mph - N/A   Overcast
10:10 PM 33.8 °F 26.4 °F 26.6 °F 75% 29.92 in 10.0 mi NW 9.2 mph - N/A   Mostly Cloudy
10:30 PM 33.8 °F 30.8 °F 24.8 °F 70% 29.92 in 10.0 mi NNW 3.5 mph - N/A   Scattered Clouds
10:50 PM 33.8 °F - 24.8 °F 70% 29.91 in 10.0 mi Calm Calm - N/A   Clear
11:10 PM 32.0 °F 28.7 °F 24.8 °F 75% 29.91 in 10.0 mi North 3.5 mph - N/A   Clear
11:30 PM 32.0 °F - 24.8 °F 75% 29.91 in 10.0 mi Calm Calm - N/A   Scattered Clouds
11:50 PM 33.8 °F 27.7 °F 24.8 °F 70% 29.91 in 10.0 mi NW 6.9 mph - N/A   Overcast